Location: Riverton
(43.0250°N, 108.3790°W)
Time: 03:55:01
(UTC-07:00)

Daily predictions for brighter satellites

Satellite Brightness Start Highest point End
(mag) Time Altitude Azimuth Time Altitude Azimuth Time Altitude Azimuth
Cosmos 2227 Rocket 4.2 04:00:39 23° ENE 04:00:39 23° ENE 04:03:15 10° NE
USA 234 4.3 04:21:15 10° E 04:26:58 33° NNE 04:27:25 33° N
Cosmos 2333 Rocket 4.1 04:32:19 20° SSE 04:32:19 20° SSE 04:33:56 10° SSE
COSMO-SKYMED 1 3.7 04:54:09 10° SE 04:58:13 41° ENE 04:58:24 41° ENE
NOAA 6 4.4 05:01:55 10° NNE 05:07:05 63° ESE 05:12:14 10° S
SeaSat 1 4.3 05:03:22 10° NNE 05:04:58 20° N 05:04:58 20° N
Cosmos 1500 Rocket 4.4 05:11:49 28° NNE 05:13:47 48° ENE 05:18:05 10° SSE
Cosmos 1816 Rocket 4.5 05:08:16 10° N 05:14:39 83° E 05:20:55 10° S
Cosmos 2237 Rocket 3.0 05:18:04 36° SSW 05:18:04 36° SSW 05:21:41 10° S
Feng Yun 1-1 Rocket 4.2 05:11:51 10° N 05:16:42 64° NW 05:16:42 64° NW
SL-16 R/B 2.2 05:17:39 41° NNW 05:19:41 78° ENE 05:25:21 10° SSE
USA 229 DEB 3.7 05:21:03 42° NW 05:23:44 79° WSW 05:30:57 10° SSE
USA 229 3.7 05:21:07 42° NW 05:23:50 80° WSW 05:31:04 10° SSE
Tsikada Rocket 3.9 05:18:40 12° NNW 05:24:32 69° W 05:30:48 10° S
SKYMED 3 4.5 05:23:52 10° SSE 05:28:12 87° ENE 05:28:48 66° N
Meteor 2-17 Rocket 4.4 05:26:47 45° SW 05:28:13 56° WNW 05:34:11 10° N
Cosmos 220 Rocket 4.5 05:25:17 10° S 05:29:39 62° ESE 05:33:59 10° NNE
Cosmos 2297 Rocket 2.1 05:28:51 56° WSW 05:29:40 63° WNW 05:35:19 10° NNE
Aureole 2 Rocket 3.1 05:31:11 58° SSW 05:31:11 58° SSW 05:34:40 10° SSE
Cosmos 783 Rocket 4.4 05:31:53 57° WNW 05:32:45 67° WSW 05:37:56 10° S
Cosmos 540 Rocket 3.9 05:38:29 42° SW 05:38:29 42° SW 05:42:37 10° S
ISS -2.7 05:38:40 55° E 05:38:40 55° E 05:41:23 10° ESE
Cosmos 1271 Rocket 4.2 05:35:10 10° SSE 05:38:44 38° E 05:42:17 10° NNE
SL-14 R/B 3.8 05:38:24 16° N 05:41:36 61° E 05:45:36 10° SSE
Cosmos 2227 Rocket 2.7 05:42:33 38° NW 05:42:33 38° NW 05:47:31 10° N
Meteor 1-16 Rocket 4.4 05:38:41 10° S 05:44:05 69° E 05:49:24 10° NNE
Meteor 1-28 Rocket 3.2 05:40:23 10° SSE 05:44:08 81° ENE 05:45:39 35° N
OAO 2 Rocket 4.4 05:43:00 26° SW 05:44:33 32° S 05:48:56 10° ESE
Cosmos 304 Rocket 3.6 05:43:38 37° NNW 05:45:32 76° WSW 05:50:18 10° SSE
SKYMED 2 3.5 05:42:00 10° S 05:46:16 59° W 05:47:04 50° NW
Meteor 1-4 Rocket 2.4 05:43:16 10° S 05:46:58 84° W 05:50:46 10° N
CZ-3 Stage 3 3.7 05:44:39 16° SSW 05:47:26 26° SSE 05:57:51 10° ESE
SL-24 R/B 4.4 05:47:07 10° N 05:51:45 64° WNW 05:57:11 10° SSW
Cosmos 1725 Rocket 4.3 05:46:39 10° SW 05:52:29 41° WNW 05:58:26 10° N
CZ-4 R/B 3.3 05:52:09 10° NNE 05:55:49 32° E 05:59:30 10° SSE
ERBS 2.9 05:57:17 37° NNW 05:58:15 51° NE 06:01:36 10° ESE
Cosmos 1538 Rocket 4.0 05:56:26 14° NNW 06:01:08 82° WSW 06:06:30 10° SSE
Cosmos 1626 4.0 05:57:55 10° NNE 06:01:17 30° ENE 06:04:36 10° SE
Coronas F rocket 4.4 06:04:37 10° NE 06:05:32 12° ENE 06:06:28 10° E
USA 234 3.4 06:02:51 10° ESE 06:09:23 75° NE 06:14:46 16° NW
Cosmos 2221 2.6 06:09:03 10° S 06:13:24 79° E 06:17:44 10° N
Ariane Rocket 2.9 06:08:47 10° N 06:13:51 67° WNW 06:18:54 10° SSW
SL-8 R/B 4.0 06:12:12 25° NW 06:14:51 59° NNE 06:19:36 10° E
Cosmos 1680 Rocket 4.4 06:12:42 10° N 06:17:53 50° ENE 06:23:02 10° SE
NOSS 3-1 (C) 4.0 06:12:11 13° NW 06:19:09 81° WSW 06:27:30 10° SSE
CSL-04 Debris 4.1 06:15:11 10° NNE 06:20:42 83° WNW 06:26:10 10° SSW
Cosmos 1603 3.7 06:17:51 10° NNW 06:23:30 87° WSW 06:29:10 10° SSE
Cosmos 2058 3.1 06:25:11 10° NNW 06:29:10 49° W 06:33:09 10° SSW
TELKOM 3 3.1 06:29:53 14° SW 06:31:58 74° SSE 06:34:06 10° ENE
Cosmos 2263 Rocket 4.1 06:27:50 10° SSE 06:32:51 33° ESE 06:37:55 10° NE
COSMO-SKYMED 1 4.0 06:31:30 10° SW 06:34:33 18° W 06:35:37 17° WNW
Cosmos 292 Rocket 3.8 06:36:16 10° NNW 06:41:04 90° NNE 06:45:52 10° SSE
PAYLOAD A 4.0 06:36:17 10° N 06:41:18 60° WNW 06:46:05 10° SSW
CZ-2C R/B 2.2 06:38:12 10° NNE 06:42:50 83° WNW 06:47:23 10° SSW
Cosmos 1805 Rocket 3.6 06:39:21 10° NNW 06:43:43 61° W 06:48:03 10° S
Cosmos 2151 4.0 06:43:37 10° NW 06:47:01 24° W 06:50:25 10° SW
Genesis I 3.3 06:43:33 12° NW 06:47:11 57° WSW 06:51:01 10° SSE
Helios 1B rocket 2.5 06:44:24 10° SSE 06:48:30 86° E 06:52:38 10° NNW
Cosmos 968 Rocket 4.3 06:44:49 10° WSW 06:49:22 29° WNW 06:53:57 10° N
CSL-04 Rocket 4.0 06:46:19 10° N 06:51:13 39° WNW 06:56:04 10° SW
SMAP 3.0 06:46:51 10° N 06:51:33 78° WNW 06:56:11 10° SSW
Cosmos 2227 4.3 06:46:44 10° SW 06:52:14 55° WNW 06:57:47 10° NNE
Cosmos 2112 Rocket 4.1 06:46:53 10° NNW 06:52:14 85° ENE 06:57:36 10° SSE
SJ-7 4.3 06:49:27 10° N 06:53:27 72° WNW 06:57:28 10° SSW
Cosmos 1356 Rocket 3.6 06:50:28 10° NNW 06:54:26 51° W 06:58:27 10° S
MOS 1 4.4 06:49:05 10° NNE 06:54:49 87° E 07:00:32 10° SSW
Cosmos 1703 3.7 06:51:09 10° NNW 06:54:51 41° W 06:58:33 10° SSW
Tiangong 2 4.0 06:55:56 10° S 06:57:56 16° SSE 06:59:56 10° ESE
Cosmos 2034 Rocket 4.1 06:54:21 10° SSW 07:00:25 58° W 07:06:35 10° N
SL-16 R/B 3.8 06:59:59 10° WNW 07:03:03 15° W 07:06:06 10° SW
Cosmos 1726 4.3 07:01:10 10° SSE 07:04:24 30° E 07:07:40 10° NNE
Cosmos 1340 Rocket 4.2 07:02:03 10° NW 07:04:56 20° W 07:07:48 10° SW
COSMOS 2441 4.4 07:00:21 10° NNE 07:05:11 89° W 07:09:58 10° SSW
Nadezhda 4 Rocket 4.1 07:03:23 10° NNW 07:09:40 66° W 07:15:52 10° S
Sich 1 3.3 07:06:43 10° NNW 07:10:54 47° W 07:15:03 10° SSW
SPOT 3 Rocket 3.6 07:06:32 10° N 07:11:42 66° WNW 07:16:52 10° SSW
